DELTA 1 DEB, 10873

Orbit data source: Space-Track

DELTA 1 DEB, 10873 is space debris in SSO originally from a launch on Thu, 29 Jul 1976 UTC launched from the Air Force Western Test Range (AFWTR). Debris objects in space refer to the collection of defunct objects orbiting the Earth. Examples of debris include non-operational satellites, rocket bodies, and fragments generated from explosions, collisions, or faulty payload assembly.

Loading next visibility...
Identifier
10873, 1976-077DB
Orbit
SSO
Country
Flag of USUS
Related business
Manufacturer
Unknown
Mission
Spacecraft
Bus & Motor
Unknown
Mass
Unknown
Launch date (UTC)
1976-07-29 (50 years ago)
Launch vehicle
Unknown
Launch site
Air Force Western Test Range (AFWTR)
Object type
Payload
Rocket body
Debris
Shape & HBR
Unknown shape, 0.1 m
Radar Cross Section
Medium (>0.1 m² and <1 m²)

Expand to show TLE details & history
Last TLE update: 1 day ago

TLE from 1 day ago
0 DELTA 1 DEB
1 10873U 76077DB  26105.29846462 -.00000022  00000-0  21616-3 0  9995
2 10873 102.2052 232.4672 0139531 273.7288 114.7275 12.13908501204089
Epoch: 2026-04-15T07:09Z
TLE epoch observation values (Epoch: 2026-04-15T07:09:47.343Z)
Latitude
29.20091°
Longitude
-85.35258°
Altitude
1,670.426 km
Speed
7.02 km/s
True Right ascension
15h 02m 13s
True Declination
29° 04' 17"
Sunlit
Object was in full shadow at epoch
Visualization orbit readout
Latitude
Unknown
Longitude
Unknown
Altitude
Unknown
Speed
Unknown
Apparent Right ascension
Unknown
Apparent Declination
Unknown
Sunlit
N/A
Visualization observer readout
Local Sidereal Time
18:04:17
Azimuth
Unknown
Elevation
Unknown
Doppler factor
Unknown
Orbital elements
Apogee altitude
1,728.359 km
Perigee altitude
1,505.25 km
Semi-major axis
7,994.942 km
Eccentricity
0.01395
Inclination
102.2052°
RAAN
232.4672°
Arg. of periapsis
273.7288°
True anomaly
116.16913°
Mean anomaly
114.7275°
Eccentric anomaly
115.44938°
Mean motion
3.03613 °/min
Orbital period
118.57 mins
BSTAR
0.00021616
Loading maneuver chart data...
Computing Atmospheric mass density...
Loading historical data...
Loading historical data...
Loading historical data...
Loading historical data...
Loading historical data...
Loading historical data...
Loading historical data...

Documentation

Showing up to 5 results
|